SBI2146 URWW-UUDD

Flight info

Callsign SBI2146
Flight time 1h 33m
Altitude 36000
Route K0832F360 NATIT B105 NIMTA W21 PELNE T661 NATOP T752 GOLRI L736 OLOPI
Aircraft A320/M-SDE3FGHIRWY/LB1

Departure

Time 2026-04-26 06:20
Airport Volgograd International Airport (URWW)

Arrival

Time 2026-04-26 07:53
Airport Domodedovo International Airport (UUDD)
Time Latitude Longitude Altitude Speed Heading
2026-04-26 05:26 48.79052 44.35391 476 ft 0 kts 340°
2026-04-26 05:26 48.79051 44.35391 476 ft 0 kts 340°
2026-04-26 05:36 48.79051 44.35392 476 ft 0 kts 340°
2026-04-26 05:46 48.79050 44.35392 458 ft 0 kts 340°
2026-04-26 06:08 48.79049 44.35392 486 ft 0 kts 340°
2026-04-26 06:10 48.79045 44.35395 486 ft 3 kts 339°
2026-04-26 06:10 48.79022 44.35412 480 ft 4 kts 321°
2026-04-26 06:10 48.79005 44.35441 481 ft 4 kts 278°
2026-04-26 06:10 48.79006 44.35463 476 ft 1 kts 249°
2026-04-26 06:11 48.79007 44.35465 476 ft 2 kts 249°
2026-04-26 06:13 48.79007 44.35466 476 ft 0 kts 249°
2026-04-26 06:15 48.79005 44.35458 476 ft 2 kts 249°
2026-04-26 06:15 48.78999 44.35433 479 ft 4 kts 249°
2026-04-26 06:15 48.78986 44.35384 483 ft 6 kts 249°
2026-04-26 06:16 48.78967 44.35310 481 ft 9 kts 249°
2026-04-26 06:16 48.78943 44.35210 484 ft 11 kts 250°
2026-04-26 06:16 48.78911 44.35118 479 ft 8 kts 215°
2026-04-26 06:16 48.78852 44.35127 485 ft 10 kts 161°
2026-04-26 06:17 48.78779 44.35164 486 ft 12 kts 162°
2026-04-26 06:17 48.78704 44.35202 482 ft 8 kts 161°
2026-04-26 06:17 48.78691 44.35208 479 ft 0 kts 161°
2026-04-26 06:18 48.78689 44.35209 480 ft 2 kts 161°
2026-04-26 06:18 48.78657 44.35225 483 ft 7 kts 162°
2026-04-26 06:18 48.78595 44.35262 481 ft 8 kts 153°
2026-04-26 06:18 48.78556 44.35234 485 ft 7 kts 242°
2026-04-26 06:19 48.78550 44.35216 484 ft 0 kts 244°
2026-04-26 06:19 48.78549 44.35213 484 ft 4 kts 244°
2026-04-26 06:19 48.78496 44.35045 484 ft 42 kts 244°
2026-04-26 06:19 48.78267 44.34321 476 ft 107 kts 244°
2026-04-26 06:20 48.77853 44.33038 449 ft 161 kts 242°
2026-04-26 06:20 48.77332 44.31480 1024 ft 163 kts 244°
2026-04-26 06:20 48.76839 44.29928 1833 ft 164 kts 242°
2026-04-26 06:20 48.76305 44.28265 2175 ft 187 kts 243°
2026-04-26 06:21 48.75711 44.26403 2605 ft 207 kts 243°
2026-04-26 06:21 48.75051 44.24325 3094 ft 230 kts 244°
2026-04-26 06:21 48.74520 44.21982 3772 ft 244 kts 264°
2026-04-26 06:21 48.74939 44.19448 4549 ft 259 kts 300°
2026-04-26 06:22 48.76320 44.17662 5450 ft 271 kts 334°
2026-04-26 06:22 48.78208 44.17272 6304 ft 281 kts
2026-04-26 06:22 48.80125 44.18002 7135 ft 287 kts 15°
2026-04-26 06:22 48.82034 44.18900 7982 ft 289 kts 15°
2026-04-26 06:23 48.83960 44.19807 8840 ft 291 kts 15°
2026-04-26 06:23 48.85903 44.20721 9729 ft 293 kts 14°
2026-04-26 06:23 48.87879 44.21549 10436 ft 300 kts
2026-04-26 06:23 48.90016 44.22069 10670 ft 322 kts
2026-04-26 06:24 48.92325 44.22404 10894 ft 344 kts
2026-04-26 06:24 48.94744 44.22675 11442 ft 353 kts
2026-04-26 06:24 48.97208 44.22958 12114 ft 357 kts
2026-04-26 06:24 48.99698 44.23275 12816 ft 361 kts
2026-04-26 06:25 49.02215 44.23631 13512 ft 365 kts
2026-04-26 06:25 49.04757 44.24021 14145 ft 369 kts
2026-04-26 06:25 49.07323 44.24432 14747 ft 373 kts
2026-04-26 06:25 49.09914 44.24854 15332 ft 376 kts
2026-04-26 06:26 49.12531 44.25280 15930 ft 380 kts
2026-04-26 06:26 49.15168 44.25708 16524 ft 383 kts
2026-04-26 06:26 49.17825 44.26138 17126 ft 386 kts
2026-04-26 06:26 49.20512 44.26568 17707 ft 389 kts
2026-04-26 06:27 49.23218 44.27000 18300 ft 393 kts
2026-04-26 06:27 49.25945 44.27434 18807 ft 396 kts
2026-04-26 06:27 49.28693 44.27870 19338 ft 398 kts
2026-04-26 06:27 49.31460 44.28311 19881 ft 401 kts
2026-04-26 06:28 49.34241 44.28754 20410 ft 403 kts
2026-04-26 06:28 49.37042 44.29205 20935 ft 406 kts
2026-04-26 06:28 49.39858 44.29661 21438 ft 408 kts
2026-04-26 06:28 49.42690 44.30118 21924 ft 411 kts
2026-04-26 06:29 49.45542 44.30581 22414 ft 413 kts
2026-04-26 06:29 49.48409 44.31047 22881 ft 416 kts
2026-04-26 06:29 49.51295 44.31517 23339 ft 418 kts
2026-04-26 06:29 49.54201 44.31988 23755 ft 421 kts
2026-04-26 06:30 49.57119 44.32454 24115 ft 423 kts
2026-04-26 06:30 49.60059 44.32834 24474 ft 424 kts 359°
2026-04-26 06:30 49.63006 44.33115 24824 ft 425 kts 359°
2026-04-26 06:30 49.65931 44.33337 25177 ft 427 kts 358°
2026-04-26 06:31 49.68942 44.33542 25532 ft 429 kts 358°
2026-04-26 06:31 49.71934 44.33752 25864 ft 431 kts 358°
2026-04-26 06:31 49.74936 44.33986 26202 ft 433 kts 358°
2026-04-26 06:31 49.77952 44.34245 26525 ft 435 kts 359°
2026-04-26 06:32 49.80981 44.34519 26841 ft 437 kts 359°
2026-04-26 06:32 49.84024 44.34800 27203 ft 437 kts 359°
2026-04-26 06:32 49.87008 44.35079 27703 ft 435 kts 359°
2026-04-26 06:32 49.90020 44.35359 28219 ft 432 kts 359°
2026-04-26 06:33 49.93009 44.35635 28738 ft 429 kts 358°
2026-04-26 06:33 49.95985 44.35910 29210 ft 428 kts 358°
2026-04-26 06:33 49.98982 44.36178 29357 ft 434 kts 358°
2026-04-26 06:33 50.02016 44.36442 29495 ft 439 kts 358°
2026-04-26 06:34 50.05087 44.36708 29651 ft 444 kts 358°
2026-04-26 06:34 50.08184 44.36977 29795 ft 448 kts 358°
2026-04-26 06:34 50.11299 44.37253 30049 ft 449 kts 358°
2026-04-26 06:34 50.14408 44.37530 30427 ft 446 kts 358°
2026-04-26 06:35 50.17499 44.37810 30754 ft 445 kts 358°
2026-04-26 06:35 50.20591 44.38098 31035 ft 445 kts 359°
2026-04-26 06:35 50.23683 44.38386 31291 ft 446 kts 359°
2026-04-26 06:35 50.26788 44.38670 31436 ft 448 kts 358°
2026-04-26 06:36 50.29894 44.38952 31722 ft 447 kts 358°
2026-04-26 06:36 50.32997 44.39234 32008 ft 446 kts 359°
2026-04-26 06:36 50.36093 44.39519 32311 ft 445 kts 358°
2026-04-26 06:36 50.39184 44.39803 32593 ft 445 kts 358°
2026-04-26 06:37 50.42274 44.40085 32872 ft 444 kts 358°
2026-04-26 06:37 50.45355 44.40368 33161 ft 443 kts 358°
2026-04-26 06:37 50.48431 44.40646 33448 ft 443 kts 358°
2026-04-26 06:37 50.51505 44.40925 33719 ft 442 kts 358°
2026-04-26 06:38 50.54576 44.41205 33995 ft 441 kts 358°
2026-04-26 06:38 50.57638 44.41486 34225 ft 441 kts 358°
2026-04-26 06:38 50.60705 44.41765 34428 ft 442 kts 358°
2026-04-26 06:38 50.63774 44.42046 34622 ft 442 kts 358°
2026-04-26 06:39 50.66846 44.42332 34812 ft 443 kts 358°
2026-04-26 06:39 50.69926 44.42622 34931 ft 444 kts 358°
2026-04-26 06:39 50.73006 44.42913 34944 ft 444 kts 358°
2026-04-26 06:40 50.79170 44.43486 34942 ft 444 kts 358°
2026-04-26 06:40 50.85332 44.44054 34937 ft 444 kts 358°
2026-04-26 06:41 50.91495 44.44635 34937 ft 444 kts 358°
2026-04-26 06:41 50.97668 44.45216 34927 ft 444 kts 358°
2026-04-26 06:42 51.03838 44.45782 34929 ft 444 kts 358°
2026-04-26 06:42 51.10012 44.46352 35201 ft 445 kts 358°
2026-04-26 06:42 51.13098 44.46507 35376 ft 441 kts 352°
2026-04-26 06:43 51.16126 44.45980 35542 ft 436 kts 343°
2026-04-26 06:43 51.19037 44.44750 35701 ft 431 kts 335°
2026-04-26 06:43 51.21797 44.42946 35871 ft 428 kts 332°
2026-04-26 06:44 51.27299 44.39190 35915 ft 431 kts 332°
2026-04-26 06:44 51.32827 44.35440 35911 ft 432 kts 332°
2026-04-26 06:45 51.38360 44.31669 35904 ft 432 kts 332°
2026-04-26 06:45 51.43889 44.27865 35901 ft 432 kts 332°
2026-04-26 06:46 51.49419 44.24064 35896 ft 433 kts 332°
2026-04-26 06:46 51.54960 44.20257 35898 ft 433 kts 332°
2026-04-26 06:47 51.60498 44.16431 35895 ft 433 kts 332°
2026-04-26 06:47 51.66040 44.12596 35894 ft 433 kts 332°
2026-04-26 06:48 51.71577 44.08752 35886 ft 433 kts 332°
2026-04-26 06:48 51.76625 44.05250 35885 ft 433 kts 332°
2026-04-26 06:49 51.82158 44.01385 35876 ft 433 kts 332°
2026-04-26 06:49 51.87695 43.97509 35872 ft 434 kts 332°
2026-04-26 06:50 51.93239 43.93628 35868 ft 434 kts 332°
2026-04-26 06:50 51.98779 43.89717 35871 ft 434 kts 331°
2026-04-26 06:51 52.04318 43.85791 35861 ft 434 kts 331°
2026-04-26 06:51 52.12629 43.79907 35853 ft 435 kts 331°
2026-04-26 06:52 52.18174 43.75962 35854 ft 435 kts 331°
2026-04-26 06:52 52.23717 43.72015 35847 ft 435 kts 331°
2026-04-26 06:53 52.29267 43.68065 35843 ft 435 kts 331°
2026-04-26 06:53 52.34823 43.64102 35841 ft 436 kts 331°
2026-04-26 06:54 52.39436 43.60785 35831 ft 436 kts 331°
2026-04-26 06:54 52.45888 43.56121 35832 ft 436 kts 331°
2026-04-26 06:55 52.50537 43.52767 35830 ft 436 kts 331°
2026-04-26 06:55 52.56091 43.48758 35828 ft 436 kts 330°
2026-04-26 06:56 52.61648 43.44731 35821 ft 436 kts 330°
2026-04-26 06:56 52.67197 43.40687 35816 ft 436 kts 330°
2026-04-26 06:57 52.72746 43.36635 35814 ft 436 kts 330°
2026-04-26 06:57 52.78291 43.32569 35805 ft 436 kts 330°
2026-04-26 06:58 52.83842 43.28490 35801 ft 436 kts 330°
2026-04-26 06:58 52.89391 43.24413 35793 ft 436 kts 330°
2026-04-26 06:59 52.94938 43.20312 35786 ft 437 kts 330°
2026-04-26 06:59 53.00486 43.16194 35782 ft 437 kts 330°
2026-04-26 07:00 53.06038 43.12075 35774 ft 437 kts 330°
2026-04-26 07:00 53.11550 43.07838 35764 ft 433 kts 324°
2026-04-26 07:01 53.16218 43.01791 35758 ft 421 kts 308°
2026-04-26 07:01 53.20176 42.94599 35754 ft 421 kts 308°
2026-04-26 07:02 53.24151 42.87413 35746 ft 421 kts 308°
2026-04-26 07:02 53.28122 42.80209 35742 ft 422 kts 308°
2026-04-26 07:03 53.32086 42.72980 35733 ft 422 kts 307°
2026-04-26 07:03 53.36047 42.65734 35734 ft 422 kts 307°
2026-04-26 07:04 53.40006 42.58482 35728 ft 422 kts 307°
2026-04-26 07:04 53.43952 42.51187 35724 ft 421 kts 306°
2026-04-26 07:05 53.47049 42.43025 35714 ft 412 kts 291°
2026-04-26 07:05 53.49512 42.34338 35709 ft 412 kts 291°
2026-04-26 07:06 53.51972 42.25636 35705 ft 412 kts 291°
2026-04-26 07:06 53.54428 42.16918 35700 ft 413 kts 291°
2026-04-26 07:07 53.56875 42.08182 35698 ft 413 kts 291°
2026-04-26 07:07 53.59320 41.99428 35694 ft 413 kts 291°
2026-04-26 07:08 53.61765 41.90671 35689 ft 413 kts 291°
2026-04-26 07:08 53.64198 41.81899 35681 ft 413 kts 291°
2026-04-26 07:09 53.66627 41.73114 35679 ft 414 kts 290°
2026-04-26 07:09 53.68181 41.63912 35674 ft 405 kts 273°
2026-04-26 07:11 53.69097 41.40222 35662 ft 405 kts 271°
2026-04-26 07:11 53.69451 41.30749 35655 ft 405 kts 271°
2026-04-26 07:12 53.69794 41.21265 35656 ft 405 kts 271°
2026-04-26 07:12 53.70121 41.11790 35647 ft 404 kts 270°
2026-04-26 07:13 53.70705 41.02351 35642 ft 408 kts 280°
2026-04-26 07:13 53.72758 40.93339 35638 ft 413 kts 289°
2026-04-26 07:14 53.75059 40.84518 35632 ft 413 kts 289°
2026-04-26 07:14 53.77359 40.75620 35629 ft 413 kts 289°
2026-04-26 07:15 53.79642 40.66701 35624 ft 413 kts 288°
2026-04-26 07:15 53.81918 40.57773 35625 ft 413 kts 288°
2026-04-26 07:16 53.84193 40.48831 35622 ft 414 kts 288°
2026-04-26 07:16 53.86460 40.39877 35618 ft 414 kts 288°
2026-04-26 07:17 53.88730 40.30923 35616 ft 413 kts 288°
2026-04-26 07:17 53.91003 40.21955 35073 ft 414 kts 288°
2026-04-26 07:17 53.92132 40.17481 34463 ft 411 kts 287°
2026-04-26 07:18 53.93250 40.13035 33874 ft 409 kts 287°
2026-04-26 07:18 53.94359 40.08615 33229 ft 407 kts 287°
2026-04-26 07:18 53.95465 40.04191 32574 ft 407 kts 287°
2026-04-26 07:18 53.96568 39.99762 31936 ft 409 kts 287°
2026-04-26 07:19 53.97678 39.95290 31309 ft 412 kts 287°
2026-04-26 07:19 53.98793 39.90802 30694 ft 413 kts 287°
2026-04-26 07:19 53.99911 39.86298 30099 ft 415 kts 287°
2026-04-26 07:19 54.01035 39.81765 29491 ft 417 kts 287°
2026-04-26 07:20 54.02164 39.77225 28830 ft 416 kts 287°
2026-04-26 07:20 54.03285 39.72714 28185 ft 413 kts 287°
2026-04-26 07:20 54.04391 39.68237 27563 ft 408 kts 287°
2026-04-26 07:20 54.05482 39.63799 26946 ft 404 kts 287°
2026-04-26 07:21 54.06561 39.59403 26341 ft 400 kts 287°
2026-04-26 07:21 54.07626 39.55053 25751 ft 396 kts 287°
2026-04-26 07:21 54.08678 39.50748 25198 ft 389 kts 287°
2026-04-26 07:21 54.09697 39.46596 24691 ft 370 kts 287°
2026-04-26 07:22 54.10668 39.42640 24205 ft 355 kts 287°
2026-04-26 07:22 54.11604 39.38800 23731 ft 348 kts 287°
2026-04-26 07:22 54.12519 39.35012 23265 ft 344 kts 287°
2026-04-26 07:22 54.13423 39.31236 22740 ft 344 kts 287°
2026-04-26 07:23 54.14327 39.27469 22183 ft 343 kts 287°
2026-04-26 07:23 54.15228 39.23718 21642 ft 341 kts 287°
2026-04-26 07:23 54.16128 39.19977 21111 ft 340 kts 287°
2026-04-26 07:23 54.17026 39.16249 20587 ft 339 kts 287°
2026-04-26 07:24 54.17923 39.12529 20104 ft 338 kts 287°
2026-04-26 07:24 54.18805 39.08863 19870 ft 332 kts 287°
2026-04-26 07:24 54.19674 39.05220 19581 ft 331 kts 287°
2026-04-26 07:24 54.20535 39.01592 19102 ft 330 kts 287°
2026-04-26 07:25 54.21395 38.97973 18643 ft 328 kts 287°
2026-04-26 07:25 54.22307 38.94396 18172 ft 330 kts 293°
2026-04-26 07:25 54.23612 38.91130 17711 ft 337 kts 305°
2026-04-26 07:25 54.25340 38.88376 17184 ft 344 kts 317°
2026-04-26 07:26 54.27429 38.86290 16664 ft 351 kts 327°
2026-04-26 07:26 54.29619 38.84452 16166 ft 350 kts 327°
2026-04-26 07:26 54.31786 38.82626 15661 ft 342 kts 327°
2026-04-26 07:26 54.33886 38.80854 15171 ft 332 kts 327°
2026-04-26 07:27 54.35942 38.79105 14687 ft 327 kts 327°
2026-04-26 07:27 54.37954 38.77382 14240 ft 321 kts 327°
2026-04-26 07:27 54.39943 38.75670 13798 ft 319 kts 327°
2026-04-26 07:27 54.41916 38.73973 13363 ft 316 kts 327°
2026-04-26 07:28 54.43882 38.72280 12872 ft 316 kts 327°
2026-04-26 07:28 54.45846 38.70589 12393 ft 316 kts 327°
2026-04-26 07:28 54.47792 38.68918 11937 ft 307 kts 327°
2026-04-26 07:28 54.49672 38.67308 11487 ft 298 kts 326°
2026-04-26 07:29 54.51500 38.65737 11074 ft 290 kts 326°
2026-04-26 07:29 54.53305 38.64175 10668 ft 291 kts 326°
2026-04-26 07:29 54.55111 38.62608 10290 ft 291 kts 326°
2026-04-26 07:29 54.56907 38.61050 9916 ft 285 kts 326°
2026-04-26 07:30 54.58667 38.59528 9571 ft 282 kts 326°
2026-04-26 07:30 54.60412 38.58018 9220 ft 280 kts 326°
2026-04-26 07:30 54.62144 38.56515 8844 ft 278 kts 326°
2026-04-26 07:30 54.63883 38.54998 8495 ft 282 kts 326°
2026-04-26 07:31 54.65621 38.53485 8170 ft 276 kts 326°
2026-04-26 07:31 54.67325 38.52004 7826 ft 273 kts 326°
2026-04-26 07:31 54.69014 38.50530 7491 ft 272 kts 326°
2026-04-26 07:31 54.70695 38.49064 7175 ft 270 kts 327°
2026-04-26 07:32 54.72365 38.47605 6941 ft 267 kts 327°
2026-04-26 07:32 54.74005 38.46172 6773 ft 262 kts 327°
2026-04-26 07:32 54.75623 38.44767 6615 ft 259 kts 327°
2026-04-26 07:32 54.77226 38.43376 6473 ft 257 kts 327°
2026-04-26 07:33 54.78828 38.41985 6351 ft 259 kts 327°
2026-04-26 07:33 54.80436 38.40590 6243 ft 258 kts 327°
2026-04-26 07:33 54.82031 38.39208 6135 ft 256 kts 327°
2026-04-26 07:33 54.83619 38.37832 6026 ft 255 kts 327°
2026-04-26 07:34 54.85204 38.36457 6030 ft 255 kts 327°
2026-04-26 07:34 54.86788 38.35076 6029 ft 255 kts 327°
2026-04-26 07:34 54.88371 38.33689 6030 ft 255 kts 327°
2026-04-26 07:34 54.89953 38.32296 6029 ft 255 kts 327°
2026-04-26 07:35 54.91528 38.30903 6029 ft 254 kts 327°
2026-04-26 07:35 54.93066 38.29544 6025 ft 244 kts 327°
2026-04-26 07:35 54.94573 38.28211 6029 ft 242 kts 327°
2026-04-26 07:35 54.95567 38.27330 6024 ft 242 kts 327°
2026-04-26 07:36 54.97073 38.25997 6027 ft 242 kts 327°
2026-04-26 07:36 54.98574 38.24665 6023 ft 242 kts 327°
2026-04-26 07:36 55.00074 38.23329 6024 ft 242 kts 327°
2026-04-26 07:36 55.01574 38.21995 6022 ft 242 kts 327°
2026-04-26 07:37 55.03074 38.20662 6020 ft 242 kts 327°
2026-04-26 07:37 55.04574 38.19328 6021 ft 242 kts 327°
2026-04-26 07:37 55.06075 38.17992 6018 ft 242 kts 327°
2026-04-26 07:37 55.07575 38.16655 6018 ft 242 kts 327°
2026-04-26 07:38 55.09075 38.15317 6019 ft 242 kts 327°
2026-04-26 07:38 55.10574 38.13987 6018 ft 242 kts 328°
2026-04-26 07:38 55.12180 38.13013 6012 ft 248 kts 345°
2026-04-26 07:38 55.13923 38.12876 6011 ft 254 kts
2026-04-26 07:39 55.15681 38.13336 6016 ft 256 kts
2026-04-26 07:39 55.17440 38.13807 6013 ft 255 kts
2026-04-26 07:39 55.19197 38.14272 6005 ft 255 kts
2026-04-26 07:39 55.20955 38.14737 6006 ft 256 kts
2026-04-26 07:40 55.22711 38.15197 6001 ft 256 kts
2026-04-26 07:40 55.24474 38.15635 6006 ft 256 kts
2026-04-26 07:40 55.26240 38.16064 6001 ft 256 kts
2026-04-26 07:40 55.28000 38.16497 6002 ft 256 kts
2026-04-26 07:41 55.29762 38.16923 6003 ft 255 kts
2026-04-26 07:41 55.31515 38.16852 5965 ft 251 kts 345°
2026-04-26 07:41 55.33149 38.15958 5784 ft 242 kts 328°
2026-04-26 07:41 55.34560 38.14430 5598 ft 238 kts 320°
2026-04-26 07:42 55.35926 38.12785 5415 ft 237 kts 320°
2026-04-26 07:42 55.37293 38.11150 5232 ft 238 kts 320°
2026-04-26 07:42 55.38658 38.09519 5045 ft 237 kts 320°
2026-04-26 07:42 55.40021 38.07888 4868 ft 236 kts 320°
2026-04-26 07:43 55.41376 38.06264 4689 ft 235 kts 320°
2026-04-26 07:43 55.42612 38.04604 4511 ft 229 kts 307°
2026-04-26 07:43 55.43379 38.02241 4340 ft 220 kts 281°
2026-04-26 07:43 55.43462 37.99609 4163 ft 215 kts 256°
2026-04-26 07:44 55.42916 37.97200 4042 ft 213 kts 239°
2026-04-26 07:44 55.42197 37.94920 3996 ft 213 kts 239°
2026-04-26 07:44 55.41496 37.92619 3994 ft 213 kts 246°
2026-04-26 07:44 55.41160 37.90085 3995 ft 216 kts 265°
2026-04-26 07:45 55.41366 37.87456 3997 ft 220 kts 282°
2026-04-26 07:45 55.41799 37.84870 3999 ft 220 kts 282°
2026-04-26 07:45 55.42226 37.82278 3999 ft 221 kts 282°
2026-04-26 07:45 55.42650 37.79684 4001 ft 221 kts 282°
2026-04-26 07:46 55.43071 37.77093 3999 ft 219 kts 281°
2026-04-26 07:46 55.43489 37.74517 4000 ft 219 kts 282°
2026-04-26 07:46 55.43993 37.71976 3999 ft 222 kts 293°
2026-04-26 07:46 55.44928 37.69779 3996 ft 226 kts 313°
2026-04-26 07:47 55.46175 37.68209 3994 ft 215 kts 322°
2026-04-26 07:47 55.47425 37.66779 4003 ft 214 kts 321°
2026-04-26 07:47 55.48667 37.65342 3999 ft 213 kts 321°
2026-04-26 07:47 55.49906 37.63900 3997 ft 213 kts 321°
2026-04-26 07:48 55.51210 37.62671 3973 ft 214 kts 341°
2026-04-26 07:48 55.52681 37.62772 3800 ft 215 kts 20°
2026-04-26 07:48 55.53851 37.64343 3628 ft 213 kts 55°
2026-04-26 07:48 55.54679 37.66510 3431 ft 212 kts 57°
2026-04-26 07:49 55.55230 37.68862 3209 ft 205 kts 91°
2026-04-26 07:49 55.54940 37.71220 3002 ft 194 kts 128°
2026-04-26 07:49 55.54014 37.72824 2814 ft 185 kts 151°
2026-04-26 07:50 55.51938 37.75332 2541 ft 166 kts 152°
2026-04-26 07:50 55.51032 37.76432 2475 ft 152 kts 152°
2026-04-26 07:50 55.50188 37.77452 2467 ft 145 kts 152°
2026-04-26 07:50 55.49364 37.78448 2349 ft 142 kts 152°
2026-04-26 07:51 55.48550 37.79432 2188 ft 141 kts 152°
2026-04-26 07:51 55.47747 37.80402 2006 ft 139 kts 152°
2026-04-26 07:51 55.46950 37.81365 1820 ft 138 kts 152°
2026-04-26 07:51 55.46158 37.82322 1632 ft 138 kts 153°
2026-04-26 07:52 55.45370 37.83273 1438 ft 137 kts 152°
2026-04-26 07:52 55.44587 37.84217 1239 ft 136 kts 151°
2026-04-26 07:52 55.43818 37.85186 1058 ft 136 kts 149°
2026-04-26 07:52 55.43039 37.86109 871 ft 135 kts 151°
2026-04-26 07:53 55.42270 37.87030 683 ft 134 kts 149°
2026-04-26 07:53 55.41519 37.87913 586 ft 118 kts 149°
2026-04-26 07:53 55.40982 37.88566 579 ft 69 kts 144°
2026-04-26 07:53 55.40779 37.88903 576 ft 30 kts 120°
2026-04-26 07:54 55.40724 37.89092 574 ft 8 kts 114°
2026-04-26 07:54 55.40716 37.89181 570 ft 7 kts 76°
2026-04-26 07:54 55.40738 37.89249 570 ft 6 kts 56°
2026-04-26 07:54 55.40739 37.89250 570 ft 0 kts 56°
2026-04-26 07:55 55.40739 37.89251 570 ft 0 kts 56°
2026-04-26 07:55 55.40746 37.89269 570 ft 5 kts 56°
2026-04-26 07:56 55.40764 37.89317 570 ft 5 kts 56°
2026-04-26 07:56 55.40789 37.89381 570 ft 6 kts 56°
2026-04-26 07:56 55.40811 37.89438 570 ft 1 kts 55°
2026-04-26 07:56 55.40824 37.89470 574 ft 0 kts 55°
2026-04-26 07:57 55.40832 37.89493 570 ft 3 kts 57°
2026-04-26 07:57 55.40842 37.89515 573 ft 3 kts 51°
2026-04-26 07:57 55.40873 37.89562 574 ft 9 kts 40°
2026-04-26 07:57 55.40914 37.89663 570 ft 8 kts 56°
2026-04-26 07:58 55.40943 37.89739 570 ft 7 kts 55°
2026-04-26 07:58 55.40970 37.89806 572 ft 6 kts 55°
2026-04-26 07:58 55.40996 37.89858 571 ft 5 kts 30°
2026-04-26 07:58 55.41022 37.89858 573 ft 3 kts 337°
2026-04-26 07:59 55.41043 37.89836 571 ft 4 kts 326°
2026-04-26 07:59 55.41073 37.89801 573 ft 6 kts 326°
2026-04-26 07:59 55.41110 37.89756 578 ft 7 kts 326°
2026-04-26 07:59 55.41123 37.89741 576 ft 2 kts 325°
2026-04-26 08:00 55.41141 37.89719 577 ft 4 kts 324°
2026-04-26 08:00 55.41165 37.89689 582 ft 0 kts 329°
2026-04-26 08:00 55.41170 37.89684 578 ft 2 kts 330°
2026-04-26 08:00 55.41181 37.89683 578 ft 2 kts
2026-04-26 08:01 55.41199 37.89697 580 ft 5 kts 42°
2026-04-26 08:01 55.41208 37.89735 578 ft 0 kts 53°
2026-04-26 08:02 55.41210 37.89740 582 ft 1 kts 54°
2026-04-26 08:02 55.41223 37.89772 576 ft 6 kts 52°
2026-04-26 08:02 55.41232 37.89790 576 ft 2 kts 49°
2026-04-26 08:03 55.41245 37.89837 576 ft 1 kts 65°
2026-04-26 08:03 55.41250 37.89853 576 ft 2 kts 63°
2026-04-26 08:03 55.41253 37.89862 576 ft 0 kts 64°
2026-04-26 08:05 55.41252 37.89862 576 ft 0 kts 64°
2026-04-26 08:10 55.41252 37.89861 577 ft 0 kts 64°